[[{"header":{"parameterUnit":"m.s-1","parameterCategory":1,"la1":30.2991,"la2":30.254,"lo1":-89.0895,"lo2":-89.0444,"dy":0.0017,"dx":0.0017,"nx":28,"ny":28,"refTime":"2024-08-05T21:00:00:Z","depth":0,"parameterNumber":2,"parameterNumberName":"U-component_of_WINDS"},"data":[0,0,0,0,0,0,0,0,0,0,0,0,0,0,0,0,0,0,0,0,0,0,0,0,0,0,0,0,0,0,0,0,0,0,0,0,0,0,0,0,0,0,0,0,0,0,0,0,0,0,0,0,0,0,0,0,0,0,2.184,2.1841,0,2.1947,2.1948,2.1949,2.1916,2.1914,2.1912,2.191,2.2022,2.2027,2.2032,0,0,0,0,0,0,0,0,0,0,0,0,0,2.1611,2.1615,2.184,2.1841,2.1842,2.1947,2.1948,2.195,2.1917,2.1914,2.1911,2.1908,2.2021,2.2027,2.2033,0,0,0,0,0,0,0,0,0,0,0,0,0,2.1713,2.1616,2.1839,2.1838,2.1839,2.1946,2.1948,2.195,2.1917,2.1914,2.191,2.1907,2.2019,2.2026,2.2034,2.2149,0,0,2.2057,2.206,0,0,0,0,0,0,0,0,2.1707,2.1722,2.1837,2.1839,2.184,2.1915,2.1909,2.2017,2.1918,2.1888,2.1909,2.1906,2.1989,2.1999,2.2027,2.2154,2.2159,2.2058,2.2062,2.2066,2.2068,0,0,0,0,0,0,0,2.17,2.1717,2.1882,2.1839,2.1841,2.1834,2.1845,2.1929,2.1956,2.189,2.1888,2.1901,2.199,2.202,2.2029,2.2161,2.2058,2.2064,2.2069,2.2072,2.2392,2.2395,0,0,0,0,0,0,2.1692,2.1711,2.1879,2.1885,2.1764,2.1841,2.1853,2.1894,2.1955,2.1961,2.1904,2.1899,2.2008,2.202,2.2033,2.2175,2.2066,2.2073,2.2077,2.2388,2.2393,2.2397,0,0,0,0,0,0,2.1687,2.1707,2.1874,2.1798,2.1818,2.1848,2.1895,2.1898,2.1928,2.1966,2.1971,2.1929,2.2006,2.2022,2.2121,2.2178,2.2076,2.2083,2.2383,2.2389,2.2395,2.2457,0,0,0,0,0,0,2.1681,2.1706,2.1749,2.1799,2.1823,2.1959,2.1898,2.1903,2.1941,2.1936,2.1991,2.1997,2.2005,2.211,2.2129,2.2187,2.2089,2.2378,2.2386,2.2393,2.245,2.2464,2.2477,0,0,0,0,0,2.1673,2.1762,2.1751,2.1771,2.1877,2.1963,2.1976,2.1983,2.1946,2.199,2.2015,2.1995,2.2168,2.212,2.2141,2.2202,2.2375,2.2384,2.2392,2.2444,2.2462,2.2476,0,0,0,0,0,0,2.1718,2.1768,2.1757,2.1865,2.191,2.1957,2.2013,2.2,2.2057,2.205,2.2056,2.2069,2.2171,2.2196,2.2142,2.2319,2.2266,2.228,2.2299,2.2316,2.2329,2.2321,2.2096,0,0,0,0,0,2.1741,2.1805,2.1846,2.1937,2.196,2.1983,2.202,2.2021,2.2068,2.2087,2.2119,2.2166,2.2232,2.2275,2.2337,2.2453,2.2466,2.2506,2.2519,2.253,2.2542,2.2608,2.2627,2.2425,2.2425,2.2425,0,0,2.1788,2.1824,2.1864,2.1947,2.1982,2.205,2.1999,2.2072,2.2124,2.2099,2.2194,2.2219,2.2273,2.2382,2.2431,2.2406,2.26,2.2541,2.2549,2.2556,2.2619,2.2638,2.2655,2.2431,2.243,2.2429,0,0,2.191,2.1942,2.2023,2.2059,2.2112,2.2127,2.2147,2.2196,2.2212,2.2307,2.2291,2.2352,2.2464,2.2504,2.2539,2.2677,2.2663,2.2697,2.2767,2.2832,2.2848,2.2862,2.2914,2.2932,2.2709,2.2709,2.2709,0,2.1963,2.2063,2.2066,2.2142,2.2181,2.2161,2.2244,2.2279,2.235,2.2378,2.2348,2.249,2.2524,2.2644,2.2678,2.2706,2.273,2.2692,2.2845,2.2859,2.2872,2.2922,2.2941,2.2713,2.2713,2.2712,2.2712,0,2.2126,2.2197,2.2256,2.2325,2.237,2.2449,2.2466,2.2511,2.2509,2.2527,2.2627,2.2667,2.2739,2.2767,2.2765,2.2887,2.287,2.2842,2.279,2.2896,2.2943,2.2961,2.2719,2.2717,2.2716,2.2715,0,0,2.228,2.2351,2.2373,2.2405,2.2463,2.2518,2.2597,2.2666,2.2706,2.2756,2.2825,2.292,2.2896,2.2936,2.2938,2.2995,2.3106,2.2961,2.2963,2.2989,2.3246,2.3267,2.3289,2.3095,2.3099,2.3102,2.3242,0,2.2408,2.2546,2.2553,2.2679,2.2746,2.2729,2.2798,2.2842,2.2862,2.2922,2.2944,2.3013,2.2975,2.2999,2.3054,2.308,2.3158,2.307,2.3161,2.3165,2.315,2.3313,2.3336,2.3466,2.326,2.3263,2.3265,0,2.2576,2.2632,2.2765,2.2816,2.2844,2.2906,2.2971,2.3028,2.3079,2.3089,2.3134,2.3129,2.3213,2.3157,2.3273,2.3214,2.3251,2.327,2.3275,2.3286,2.3223,2.333,2.3507,2.3528,2.3294,2.3291,2.3289,0,2.2678,2.2786,2.288,2.2908,2.2969,2.3013,2.3041,2.3088,2.313,2.3187,2.3215,2.3281,2.3318,2.337,2.3384,2.3342,2.3502,2.3446,2.3515,2.3515,2.3551,2.3549,2.3739,2.3572,2.3572,2.3571,2.3571,0,2.2822,2.2905,2.2927,2.2985,2.3078,2.3085,2.3178,2.3203,2.3245,2.331,2.3298,2.3359,2.3373,2.3437,2.3449,2.3545,2.3561,2.3574,2.3577,2.3576,2.3575,2.3603,2.3595,2.3576,2.3575,2.3574,2.3573,0,2.2952,2.297,2.3072,2.3121,2.3135,2.3202,2.3245,2.3302,2.3321,2.3403,2.3422,2.3452,2.3527,2.3546,2.3636,2.3644,2.3759,2.3751,2.3741,2.3742,2.3811,2.3805,2.4027,2.4058,2.3868,2.387,2.3871,0,2.3043,2.3107,2.3163,2.3205,2.3235,2.3302,2.3345,2.3355,2.34,2.3464,2.3514,2.3588,2.3647,2.3769,2.38,2.3869,2.3865,2.3938,2.3875,2.3874,2.3869,2.3866,2.3874,2.3951,2.3953,2.3954,2.3955,0,2.3205,2.3211,2.3272,2.3338,2.3389,2.3441,2.3491,2.3527,2.3544,2.3596,2.3672,2.3719,2.3811,2.3886,2.3956,2.3986,2.3975,2.3975,2.3995,2.3996,2.3989,2.3997,2.3776,2.397,2.3969,2.3967,2.3967,2.3966,2.332,2.3377,2.3426,2.3495,2.3534,2.3581,2.3638,2.3664,2.3727,2.3803,2.3805,2.3889,2.3941,2.4034,2.4068,2.4136,2.4114,2.4142,2.415,2.4157,2.4165,2.3977,2.4148,2.4148,2.4147,2.4147,2.4147,0,2.3483,2.3514,2.3578,2.3648,2.3704,2.3687,2.3742,2.379,2.3864,2.3912,2.3971,2.4061,2.4134,2.417,2.4243,2.429,2.4287,2.4309,2.4307,2.4315,2.4179,2.4155,2.4311,2.4311,2.4311,2.4311,2.431,2.431,2.3575,2.367,2.3682,2.3798,2.3828,2.391,2.3943,2.3988,2.4027,2.4127,2.4187,2.421,2.4255,2.4331,2.4398,2.4407,2.4436,2.4461,2.4468,2.4341,2.4324,2.4308,2.4286,2.4467,2.4467,2.4599,2.46,2.4601]},{"header":{"parameterUnit":"m.s-1","parameterCategory":1,"la1":30.2991,"la2":30.254,"lo1":-89.0895,"lo2":-89.0444,"dy":0.0017,"dx":0.0017,"nx":28,"ny":28,"refTime":"2024-08-05T21:00:00:Z","depth":0,"parameterNumber":3,"parameterNumberName":"V-component_of_WINDS"},"data":[0,0,0,0,0,0,0,0,0,0,0,0,0,0,0,0,0,0,0,0,0,0,0,0,0,0,0,0,0,0,0,0,0,0,0,0,0,0,0,0,0,0,0,0,0,0,0,0,0,0,0,0,0,0,0,0,0,0,-0.6142,-0.6142,0,-0.6182,-0.6183,-0.6183,-0.6225,-0.6225,-0.6226,-0.6226,-0.6268,-0.6269,-0.6269,0,0,0,0,0,0,0,0,0,0,0,0,0,-0.6102,-0.6103,-0.6142,-0.6142,-0.6143,-0.6182,-0.6183,-0.6183,-0.6225,-0.6225,-0.6226,-0.6227,-0.6268,-0.6268,-0.6269,0,0,0,0,0,0,0,0,0,0,0,0,0,-0.6129,-0.6103,-0.6142,-0.6168,-0.6171,-0.6182,-0.6183,-0.6183,-0.6224,-0.6225,-0.6226,-0.6227,-0.6268,-0.6268,-0.6269,-0.6257,0,0,-0.6272,-0.6272,0,0,0,0,0,0,0,0,-0.6127,-0.613,-0.6164,-0.6166,-0.617,-0.6199,-0.6184,-0.6208,-0.6224,-0.6204,-0.6226,-0.6227,-0.6244,-0.6247,-0.6253,-0.6259,-0.6261,-0.6272,-0.6272,-0.6273,-0.6273,0,0,0,0,0,0,0,-0.6125,-0.6129,-0.6158,-0.6164,-0.6168,-0.6179,-0.6183,-0.6189,-0.6219,-0.6206,-0.6209,-0.6213,-0.6246,-0.6252,-0.6254,-0.6262,-0.6272,-0.6273,-0.6273,-0.6274,-0.6261,-0.626,0,0,0,0,0,0,-0.6119,-0.6127,-0.6157,-0.6159,-0.615,-0.6179,-0.6184,-0.6189,-0.6219,-0.6224,-0.6213,-0.6215,-0.625,-0.6253,-0.6256,-0.6244,-0.6273,-0.6274,-0.6274,-0.6262,-0.6261,-0.626,0,0,0,0,0,0,-0.6118,-0.6121,-0.6155,-0.6144,-0.6149,-0.6178,-0.6184,-0.6189,-0.6195,-0.6224,-0.623,-0.6213,-0.6251,-0.6255,-0.6257,-0.6246,-0.6274,-0.6275,-0.6263,-0.6261,-0.626,-0.6219,0,0,0,0,0,0,-0.6117,-0.6121,-0.6116,-0.6143,-0.6149,-0.6154,-0.6183,-0.6189,-0.6196,-0.62,-0.6226,-0.6231,-0.6252,-0.6255,-0.6258,-0.6247,-0.6275,-0.6264,-0.6262,-0.6261,-0.6222,-0.6217,-0.6213,0,0,0,0,0,-0.6115,-0.6103,-0.6116,-0.6119,-0.6144,-0.6154,-0.6157,-0.6182,-0.6195,-0.6191,-0.621,-0.623,-0.6247,-0.6255,-0.6258,-0.6248,-0.6265,-0.6263,-0.6261,-0.6224,-0.6218,-0.6213,0,0,0,0,0,0,-0.6074,-0.6107,-0.6121,-0.6118,-0.6133,-0.6161,-0.6156,-0.6174,-0.6186,-0.6189,-0.6219,-0.6224,-0.6223,-0.6236,-0.6245,-0.6238,-0.6259,-0.6257,-0.6229,-0.6224,-0.6219,-0.6216,-0.6276,0,0,0,0,0,-0.6064,-0.6069,-0.6098,-0.6092,-0.6099,-0.6126,-0.6131,-0.6149,-0.6166,-0.6172,-0.6191,-0.6207,-0.6216,-0.6221,-0.6231,-0.6225,-0.6231,-0.6219,-0.6215,-0.6211,-0.6209,-0.6206,-0.6202,-0.6254,-0.6254,-0.6254,0,0,-0.6044,-0.6063,-0.6064,-0.6084,-0.6098,-0.6102,-0.6131,-0.6135,-0.6138,-0.6173,-0.6176,-0.619,-0.621,-0.6208,-0.6208,-0.6219,-0.6196,-0.6208,-0.6205,-0.6205,-0.6204,-0.6199,-0.6195,-0.6252,-0.6253,-0.6253,0,0,-0.601,-0.6025,-0.6021,-0.6035,-0.6055,-0.6074,-0.6073,-0.6099,-0.6109,-0.6113,-0.6139,-0.6144,-0.6159,-0.6172,-0.6181,-0.6153,-0.6172,-0.6155,-0.6131,-0.6128,-0.6124,-0.6121,-0.611,-0.6106,-0.6154,-0.6153,-0.6153,0,-0.5982,-0.599,-0.6017,-0.6019,-0.6027,-0.6059,-0.6056,-0.6068,-0.609,-0.6095,-0.6107,-0.6127,-0.6142,-0.6143,-0.6137,-0.6143,-0.6143,-0.6152,-0.6122,-0.6119,-0.6116,-0.6107,-0.6103,-0.6151,-0.6152,-0.6152,-0.6152,0,-0.5955,-0.596,-0.5955,-0.5976,-0.5984,-0.5983,-0.601,-0.6015,-0.6032,-0.605,-0.6053,-0.6073,-0.6088,-0.609,-0.6107,-0.6094,-0.61,-0.6117,-0.6137,-0.6109,-0.61,-0.6097,-0.6148,-0.6149,-0.615,-0.615,0,0,-0.5894,-0.5931,-0.5928,-0.5938,-0.5964,-0.5968,-0.597,-0.5984,-0.5987,-0.6002,-0.6004,-0.6017,-0.6033,-0.6042,-0.6061,-0.6059,-0.6036,-0.6077,-0.6078,-0.6068,-0.6022,-0.6008,-0.6003,-0.6049,-0.6048,-0.6048,-0.602,0,-0.5863,-0.5867,-0.5892,-0.5888,-0.5893,-0.5924,-0.5926,-0.5942,-0.5958,-0.5965,-0.5985,-0.5992,-0.6013,-0.6019,-0.6019,-0.6038,-0.6027,-0.6041,-0.6051,-0.6051,-0.6043,-0.5999,-0.5984,-0.5956,-0.6017,-0.6016,-0.6016,0,-0.5827,-0.584,-0.5837,-0.5863,-0.5866,-0.5866,-0.5882,-0.5888,-0.5908,-0.592,-0.5931,-0.5953,-0.5957,-0.5977,-0.5983,-0.5992,-0.5998,-0.6008,-0.6008,-0.6009,-0.603,-0.5997,-0.5948,-0.5943,-0.6011,-0.6012,-0.6012,0,-0.5782,-0.5799,-0.5799,-0.5807,-0.5837,-0.5837,-0.585,-0.587,-0.5877,-0.5891,-0.5896,-0.591,-0.5917,-0.5928,-0.5953,-0.5966,-0.5956,-0.5979,-0.5966,-0.5965,-0.5961,-0.5961,-0.5911,-0.5967,-0.5967,-0.5967,-0.5967,0,-0.5744,-0.5741,-0.5779,-0.5779,-0.5776,-0.5806,-0.5802,-0.5818,-0.5836,-0.584,-0.5869,-0.5872,-0.5906,-0.5913,-0.5933,-0.5934,-0.5938,-0.5948,-0.5953,-0.5945,-0.5943,-0.5948,-0.595,-0.5966,-0.5966,-0.5967,-0.5967,0,-0.5692,-0.5717,-0.572,-0.5749,-0.5756,-0.5753,-0.5778,-0.578,-0.5799,-0.5803,-0.5806,-0.5836,-0.5846,-0.5873,-0.589,-0.5904,-0.5899,-0.591,-0.5892,-0.5895,-0.5881,-0.5881,-0.5831,-0.5826,-0.5886,-0.5886,-0.5885,0,-0.5665,-0.5663,-0.5693,-0.5697,-0.5709,-0.5716,-0.5723,-0.5753,-0.576,-0.5782,-0.5781,-0.5794,-0.5805,-0.582,-0.5843,-0.5857,-0.5867,-0.5849,-0.5869,-0.5861,-0.5865,-0.5865,-0.5864,-0.5843,-0.5843,-0.5842,-0.5841,0,-0.5615,-0.5628,-0.5638,-0.5652,-0.566,-0.5673,-0.5687,-0.5689,-0.5723,-0.5729,-0.574,-0.5748,-0.5766,-0.5778,-0.5795,-0.5809,-0.5831,-0.5835,-0.5833,-0.5823,-0.5813,-0.5817,-0.5879,-0.5836,-0.5836,-0.5837,-0.5837,-0.5837,-0.5574,-0.5574,-0.5595,-0.5604,-0.5619,-0.5631,-0.5634,-0.5654,-0.5663,-0.568,-0.5697,-0.5706,-0.5726,-0.5752,-0.5764,-0.5772,-0.5783,-0.578,-0.5779,-0.5777,-0.5773,-0.5813,-0.5776,-0.5776,-0.5776,-0.5776,-0.5776,0,-0.5525,-0.554,-0.5549,-0.5568,-0.5576,-0.5596,-0.5613,-0.5618,-0.5625,-0.5643,-0.5654,-0.5666,-0.5678,-0.5703,-0.5718,-0.5719,-0.5729,-0.5722,-0.5721,-0.5724,-0.5763,-0.5763,-0.5713,-0.5713,-0.5713,-0.5713,-0.5713,-0.5713,-0.55,-0.55,-0.5516,-0.5524,-0.5539,-0.5548,-0.5556,-0.5568,-0.5582,-0.5594,-0.5604,-0.5621,-0.5641,-0.5658,-0.567,-0.5677,-0.5681,-0.567,-0.568,-0.5715,-0.5721,-0.5727,-0.5727,-0.5671,-0.567,-0.564,-0.564,-0.564]}]]